Home > Weather > Dallas > Past weeks

Flag for USA Past Weather in Dallas, Texas, USA — Yesterday and Last 2 Weeks

Now
90 °F

Broken clouds.


Feels Like: 95 °F
Forecast: 78 / 96 °F
Wind: 7 mph from West

Location: Dallas Love Field

Current Time: Jul 29, 2016 at 12:57:31 PM

Latest Report: Jul 29, 2016 at 11:53 AM


Visibility: 10 mi

Pressure: 30.01 "Hg

Humidity: 52%

Dew Point: 70 °F

Location of DallasLocation

Past Weather in Dallas — Graph

°F

Dallas Temperature Yesterday

Maximum temperature yesterday: 97 °F (at 3:53 PM)
Minimum temperature yesterday: 81 °F (at 3:53 AM)
Average temperature yesterday: 86 °F

High & Low Weather Summary for the Past Weeks

 TemperatureHumidityPressure
High100 °F (Jul 22, 4:53 PM)90% (Jul 15, 9:53 AM)30.18 "Hg (Jul 15, 9:53 AM)
Low71 °F (Jul 15, 9:53 AM)32% (Jul 22, 3:53 PM)29.83 "Hg (Jul 23, 6:53 PM)
Average88 °F57%29.98 "Hg
* Reported Jul 14 10:53 AM — Jul 29 10:53 AM, Dallas, Weather by CustomWeather, © 2016

Note: Actual official high and low records may vary slightly from our data, if they occured in-between our weather recording intervals... More about our weather records

Advertising

Dallas Weather History for the Previous 24 Hours

Scroll right to see more
 ConditionsComfort  
Time TempWeatherWind HumidityBarometerVisibility
10:53 AM
Fri, Jul 29
87 °FScattered clouds.9 mph59%29.99 "Hg10 mi
9:53 AM85 °FBroken clouds.9 mph61%30.00 "Hg10 mi
8:53 AM82 °FPartly sunny.8 mph70%30.01 "Hg10 mi
7:53 AM79 °FBroken clouds.7 mph79%29.99 "Hg10 mi
6:53 AM78 °FPassing clouds.6 mph82%29.96 "Hg10 mi
5:53 AM78 °FPassing clouds.8 mph79%29.93 "Hg10 mi
4:53 AM79 °FPassing clouds.8 mph77%29.93 "Hg10 mi
3:53 AM80 °FPartly cloudy.8 mph74%29.93 "Hg10 mi
2:53 AM80 °FPassing clouds.7 mph74%29.92 "Hg10 mi
1:53 AM81 °FPassing clouds.10 mph74%29.93 "Hg10 mi
12:53 AM81 °FPartly cloudy.9 mph72%29.93 "Hg10 mi
11:53 PM
Thu, Jul 28
82 °FPassing clouds.9 mph72%29.93 "Hg10 mi
10:53 PM84 °FMostly cloudy.5 mph65%29.92 "Hg10 mi
9:53 PM83 °FMostly cloudy.8 mph70%29.92 "Hg10 mi
8:53 PM83 °FPartly sunny.7 mph70%29.93 "Hg10 mi
7:53 PM85 °FBroken clouds.17 mph63%29.91 "Hg10 mi
6:53 PM92 °FBroken clouds.17 mph47%29.89 "Hg10 mi
5:53 PM93 °FBroken clouds.12 mph44%29.86 "Hg10 mi
4:53 PM96 °FBroken clouds.3 mph40%29.86 "Hg10 mi
3:53 PM97 °FScattered clouds.7 mph42%29.89 "Hg10 mi
2:53 PM95 °FScattered clouds.6 mph44%29.90 "Hg10 mi
1:53 PM94 °FPassing clouds.8 mph44%29.91 "Hg10 mi
12:53 PM91 °FScattered clouds.8 mph52%29.93 "Hg10 mi
Weather by CustomWeather, © 2016

See weather overviewHow to use our weather pages